Batman, Turkey

7:00 AM +03 on March 29, 2017 (GMT +0300)
Batman Air Base

Weather History for LTCJ - October, 2011

Change the Weather History Date:

Wednesday, October 5, 2011

  Actual Average (LTCC) Record (LTCC)
Temperature  
Mean Temperature 60 °F -  
Max Temperature 80 °F 82 °F 87 °F (1998)
Min Temperature 41 °F 54 °F 46 °F (2011)
Degree Days  
Heating Degree Days 4    
Growing Degree Days 10 (Base 50)    
Moisture  
Dew Point 35 °F    
Average Humidity 49    
Maximum Humidity 93    
Minimum Humidity 13    
Precipitation  
Precipitation 0.00 in - - ()
Sea Level Pressure  
Sea Level Pressure 30.01 in    
Wind  
Wind Speed 3 mph ()    
Max Wind Speed 7 mph    
Max Gust Speed -    
Visibility 5.3 miles    
Events      
Averages and records for this station are not official NWS values.
T = Trace of Precipitation, MM = Missing Value Source: Averaged Metar Reports

Daily Weather History Graph

Daily Weather History Graph

Search for Another Location

Airport or City:

Trip Planner

Search our weather history database for the weather conditions in past years. The results will help you decide how hot, cold, wet, or windy it might be!

Date:

Astronomy

Oct. 05, 2011 Rise Set
Actual Time 6:14 AM EEST 5:53 PM EEST
Civil Twilight 5:47 AM EEST 6:19 PM EEST
Nautical Twilight 5:17 AM EEST 6:50 PM EEST
Astronomical Twilight 4:46 AM EEST 7:20 PM EEST
Moon 2:14 PM EEST (10/5) No Moon Set
Length of Visible Light 12h 31m
Length of Day
11h 39m
Waxing Gibbous, 63% of the Moon is Illuminated
Oct 5
Waxing Gibbous
Oct 12
Full
Oct 20
Last Quarter
Oct 26
New
Nov 2
First Quarter

Hourly Weather History & Observations

Time (EEST) Temp. Windchill Dew Point Humidity Pressure Visibility Wind Dir Wind Speed Gust Speed Precip Events Conditions
12:20 AM 50.0 °F - 39.2 °F 66% 30.01 in - Calm Calm - N/A   Clear
12:50 AM 48.2 °F - 41.0 °F 76% 30.01 in - SW 3.5 mph - N/A   Clear
1:20 AM 48.2 °F - 39.2 °F 71% 30.01 in - South 4.6 mph - N/A   Clear
1:50 AM 46.4 °F - 37.4 °F 71% 30.01 in - Variable 1.2 mph - N/A   Clear
2:20 AM 46.4 °F - 39.2 °F 76% 30.01 in - Calm Calm - N/A   Clear
3:20 AM 44.6 °F 41.4 °F 39.2 °F 81% 30.01 in - NE 5.8 mph - N/A   Clear
3:50 AM 42.8 °F 39.3 °F 39.2 °F 87% 30.01 in - NE 5.8 mph - N/A   Clear
4:20 AM 42.8 °F 38.6 °F 39.2 °F 87% 30.01 in - NNE 6.9 mph - N/A   Clear
4:50 AM 41.0 °F 36.4 °F 39.2 °F 93% 30.01 in - NE 6.9 mph - N/A   Clear
5:20 AM 42.8 °F 39.3 °F 39.2 °F 87% 30.01 in - NE 5.8 mph - N/A   Clear
5:50 AM 42.8 °F 39.3 °F 39.2 °F 87% 30.01 in - NE 5.8 mph - N/A   Clear
6:20 AM 42.8 °F 40.1 °F 37.4 °F 81% 30.04 in - NNE 4.6 mph - N/A   Clear
6:50 AM 42.8 °F - 39.2 °F 87% 30.04 in - Variable 2.3 mph - N/A   Clear
7:20 AM 44.6 °F - 39.2 °F 81% 30.04 in 5.0 mi Variable 2.3 mph - N/A   Unknown
7:50 AM 48.2 °F - 41.0 °F 76% 30.04 in - Variable 2.3 mph - N/A   Clear
8:20 AM 51.8 °F - 41.0 °F 67% 30.06 in - Calm Calm - N/A   Clear
8:50 AM 53.6 °F - 42.8 °F 67% 30.06 in - SSW 3.5 mph - N/A   Clear
9:20 AM 57.2 °F - 39.2 °F 51% 30.06 in - SW 4.6 mph - N/A   Clear
9:50 AM 60.8 °F - 39.2 °F 45% 30.06 in - WSW 4.6 mph - N/A   Clear
10:20 AM 64.4 °F - 35.6 °F 34% 30.04 in - SW 4.6 mph - N/A   Clear
10:50 AM 68.0 °F - 35.6 °F 30% 30.04 in - Variable 4.6 mph - N/A   Clear
11:20 AM 69.8 °F - 32.0 °F 25% 30.04 in - Variable 3.5 mph - N/A   Clear
11:50 AM 71.6 °F - 32.0 °F 23% 30.04 in - WSW 3.5 mph - N/A   Clear
12:20 PM 71.6 °F - 30.2 °F 22% 30.01 in - WSW 5.8 mph - N/A   Clear
12:50 PM 75.2 °F - 28.4 °F 18% 30.01 in - Variable 3.5 mph - N/A   Clear
1:20 PM 78.8 °F - 26.6 °F 15% 29.98 in - Variable 2.3 mph - N/A   Clear
1:50 PM 77.0 °F - 24.8 °F 14% 29.98 in - Variable 2.3 mph - N/A   Clear
2:20 PM 78.8 °F - 28.4 °F 16% 29.98 in - SW 5.8 mph - N/A   Clear
2:50 PM 78.8 °F - 26.6 °F 15% 29.98 in - WSW 4.6 mph - N/A   Clear
3:20 PM 80.6 °F - 26.6 °F 14% 29.98 in - SW 5.8 mph - N/A   Clear
3:50 PM 80.6 °F - 24.8 °F 13% 29.95 in - SW 4.6 mph - N/A   Clear
4:20 PM 80.6 °F - 26.6 °F 14% 29.95 in - Variable 2.3 mph - N/A   Clear
4:50 PM 78.8 °F - 26.6 °F 15% 29.95 in - SW 4.6 mph - N/A   Clear
5:20 PM 75.2 °F - 30.2 °F 19% 29.95 in 5.6 mi WSW 6.9 mph - N/A   Unknown
5:50 PM 71.6 °F - 33.8 °F 25% 29.95 in - SW 4.6 mph - N/A   Clear
6:20 PM 71.6 °F - 32.0 °F 23% 29.98 in - South 4.6 mph - N/A   Clear
6:50 PM 69.8 °F - 30.2 °F 23% 29.98 in - South 4.6 mph - N/A   Clear
7:20 PM 62.6 °F - 35.6 °F 37% 29.98 in - Calm Calm - N/A   Clear
7:50 PM 60.8 °F - 37.4 °F 42% 29.98 in - Variable 1.2 mph - N/A   Clear
8:20 PM 59.0 °F - 37.4 °F 45% 29.98 in - NE 5.8 mph - N/A   Clear
8:50 PM 59.0 °F - 35.6 °F 42% 30.01 in - NNE 4.6 mph - N/A   Clear
9:20 PM 57.2 °F - 39.2 °F 51% 30.01 in - Calm Calm - N/A   Clear
9:50 PM 55.4 °F - 37.4 °F 51% 30.01 in - Calm Calm - N/A   Clear
10:20 PM 53.6 °F - 41.0 °F 62% 30.01 in - NNE 5.8 mph - N/A   Clear
10:50 PM 53.6 °F - 41.0 °F 62% 30.01 in - NE 5.8 mph - N/A   Clear
11:20 PM 51.8 °F - 37.4 °F 58% 30.04 in - NNE 3.5 mph - N/A   Clear
11:50 PM 51.8 °F - 39.2 °F 62% 30.01 in - Variable 2.3 mph - N/A   Clear